星链-3392 (STARLINK-3392 )

导读

STARLINK-3392是美国太空探索技术公司星链计划中的卫星,于2022年1月19日发射升空,归属美国航天项目。它属于星链卫星互联网星座组网卫星,旨在为全球范围内提供高速低延迟的卫星互联网服务,补充地面网络覆盖盲区,推进全球互联网络覆盖布局。

Basic Information
目录编号:
51123
目录名称:
STARLINK-3392
国际标识:
2022-005V
轨道中心:
EARTH
卫星名称:
星链-3392
卫星全名:
星链-3392 (STARLINK-3392 )
卫星状态:
在轨 (已飞行1610 天)
发射日期:
2022-01-19 UTC
国别 :
美国 (US)
星等 :
--
Orbit Information
数据来源 国际轨道数据 AOE轨道数据
星历时间 2026-06-17T17:48:36+0800
11小时前
查看轨道信息
2026-06-17T06:00:00+0800
23小时前
查看轨道信息
半长轴 6917.899km 6917.936km
偏心率 0.0001157 0.0001217
轨道倾角 53.160° 53.160°
近地点辐角 88.128° 37.329°
升交点赤经 201.367° 203.585°
平近点角 271.985° 168.360°
近地点 538.961km 538.957km
远地点 540.563km 540.641km
周期 95.438分钟 95.439分钟
每日圈数 15.088341 15.088219
Detailed Information
固有亮度:
5
最大亮度:
2.5
卫星平台:
Starlink v1.5
覆盖范围:
全球
运营商:
太空探索技术公司
运营商所在国:
美国
制造商(研发单位):
太空探索技术公司
制造商所在国:
美国
使用方式:
暂无
Satellite Introduction
星链(Starlink)计划是由太空探索技术公司(SpaceX)提出的一个巨型低轨卫星互联网星座项目,计划在2019年至2024年间在太空搭建由约1.2万颗卫星组成的“星链”网络,其中1584颗将部署在地球上空550千米处的近地轨道,并从2020年开始工作。该卫星仍在工作。
2D Orbit Map
3D Orbit Map
Orbit Altitude Analysis Chart
Orbit Inclination Analysis Chart
Orbit Comprehensive Analysis Chart
View Comprehensive Chart